GFSFLT2_sfc_temp_102.txt.gz
Temp
70 71 72 71 70 70 70 71 71 72 72 72 73 72 72 73 73 74 74 73 73 72 72 71 71 71 70 69 68 69 68 68
70 71 69 69 70 69 70 70 70 71 71 71 71 71 72 72 72 73 73 73 72 72 71 71 71 70 69 68 68 68 67 67
69 70 71 70 67 69 70 71 70 70 70 70 69 69 70 71 70 71 71 71 71 71 71 70 69 69 68 68 67 66 66 67
68 69 69 68 69 69 70 71 71 69 69 69 69 68 68 69 69 69 70 69 70 70 68 68 68 66 66 68 66 65 66 66
65 67 68 68 69 70 70 71 68 67 68 67 67 67 67 66 66 67 66 68 66 67 66 66 66 66 65 66 65 65 66 66
65 64 65 66 69 70 71 71 69 66 67 70 68 68 67 65 66 65 64 64 64 63 64 64 64 64 64 65 64 65 65 65
66 65 65 66 67 69 70 71 71 72 71 70 69 69 68 66 65 66 64 63 63 62 62 63 64 64 64 64 65 65 65 65
68 66 66 66 67 68 69 71 71 70 69 69 68 69 68 66 66 66 63 63 62 62 62 62 63 64 64 64 64 64 64 64
67 67 67 66 66 65 66 68 69 68 68 68 69 68 67 66 65 65 65 63 62 61 61 61 62 63 63 64 64 64 64 64
69 70 67 67 67 66 65 67 68 67 67 67 67 67 65 64 65 65 64 64 64 63 62 62 61 62 62 63 63 64 63 63
65 68 68 67 68 67 66 65 66 65 66 66 66 66 65 65 66 65 64 64 63 63 62 63 61 61 62 62 63 63 63 64
64 68 68 68 68 67 66 66 66 66 66 66 66 65 65 65 66 65 64 64 63 63 62 62 62 61 62 62 62 62 63 63
60 63 67 67 68 66 66 65 66 66 66 66 65 65 65 65 65 64 64 63 64 64 63 61 61 62 60 59 60 61 61 62
56 60 66 67 68 71 68 68 67 67 66 65 65 65 65 65 64 63 63 63 62 63 62 61 61 61 59 57 54 55 59 61
53 54 62 66 68 68 63 64 63 64 65 65 65 65 65 65 64 64 63 63 62 62 62 61 59 60 60 58 53 53 55 57
52 53 54 65 67 67 67 65 63 65 66 66 66 65 65 65 64 63 63 63 62 62 62 62 61 59 60 60 59 57 53 51
52 51 55 60 66 67 66 64 66 65 66 64 64 64 64 64 63 62 63 62 62 62 61 61 62 61 60 59 57 56 56 53
50 51 53 57 66 66 65 65 64 62 63 63 62 63 62 62 62 62 62 62 61 61 62 61 60 60 60 59 60 57 54 54
48 49 49 53 65 66 66 64 63 62 63 63 62 62 61 61 61 61 62 62 62 62 61 60 60 59 60 60 60 60 59 59
45 46 48 51 63 66 67 65 61 61 63 62 62 61 61 62 61 62 62 61 61 61 60 60 61 60 60 60 60 60 60 58

GFSFLT2_sfc_temp_105.txt.gz
Temp
76 76 75 71 70 71 71 71 72 72 72 73 73 73 73 73 74 74 74 73 72 73 72 72 72 71 71 69 68 70 80 80
74 74 74 75 76 69 70 70 71 71 71 71 71 71 72 72 72 73 73 73 72 72 72 71 71 70 69 68 68 69 80 80
72 73 73 73 75 75 71 71 70 70 72 71 71 79 78 78 75 72 72 71 71 71 71 70 69 69 69 68 68 79 79 79
71 72 72 72 73 75 76 75 76 77 78 78 79 78 79 78 75 69 70 70 70 69 70 69 70 79 77 69 77 76 78 76
70 70 71 71 72 74 75 74 73 73 75 77 77 77 76 78 79 77 77 71 78 73 73 77 77 76 74 78 76 74 78 75
74 70 69 69 73 74 75 73 72 72 76 75 74 72 73 76 78 76 76 77 76 76 75 75 76 76 76 73 70 71 73 74
73 72 69 69 70 74 74 73 73 73 76 76 75 72 71 72 74 74 75 75 75 74 74 74 75 74 74 74 71 72 71 72
76 73 70 71 70 72 74 74 74 74 76 76 75 76 71 70 70 71 73 74 74 74 74 73 74 73 73 73 74 71 69 67
75 76 77 73 72 72 73 75 75 73 73 72 72 72 70 69 69 69 70 71 72 72 72 71 71 70 69 71 73 72 71 66
74 76 74 73 73 72 72 74 74 74 71 70 70 71 71 68 68 69 68 67 70 70 68 68 68 68 67 70 70 70 66 66
71 72 74 72 72 73 72 72 73 73 72 70 69 70 70 68 68 69 68 66 66 67 66 67 67 66 68 69 69 68 64 65
66 69 72 74 72 72 70 71 71 70 69 69 69 69 69 69 69 68 67 65 65 65 64 65 66 66 65 65 67 68 66 64
62 62 65 71 73 70 67 66 69 68 69 70 69 69 68 69 68 68 66 66 65 65 64 62 62 64 62 63 64 66 66 63
60 61 63 66 74 75 74 72 69 70 69 69 70 69 68 69 68 67 66 65 65 65 64 62 62 63 60 59 55 58 61 64
58 60 60 62 65 74 74 69 68 66 66 66 68 70 69 69 68 67 65 65 65 65 65 65 60 62 63 60 54 55 57 61
56 56 58 61 64 69 71 69 67 69 71 70 67 69 68 69 68 67 66 66 65 65 66 65 64 60 61 62 62 63 58 56
53 53 55 58 61 64 70 70 73 74 73 71 68 67 69 68 67 67 67 66 65 65 65 64 63 62 61 61 60 58 59 59
49 49 51 54 57 60 66 70 71 70 71 69 67 66 66 66 66 66 66 65 65 67 64 64 63 62 62 63 61 58 59 58
46 46 47 51 53 58 65 67 69 70 70 70 66 64 63 65 65 65 65 65 66 67 64 63 63 62 61 61 62 61 63 65
43 43 44 49 51 54 65 67 66 69 70 71 68 65 65 66 64 66 66 65 66 67 67 65 62 61 62 62 62 62 62 61

GFSFLT2_sfc_temp_108.txt.gz
Temp
86 83 78 71 71 71 71 72 72 72 73 73 74 73 73 74 74 74 74 74 73 73 73 73 72 72 71 69 69 71 87 90
84 82 80 82 81 70 70 71 71 72 72 72 72 72 73 73 73 73 73 73 72 73 72 72 72 71 70 69 69 70 85 89
80 77 77 78 82 80 72 71 71 71 73 71 72 85 83 81 78 73 72 72 71 71 71 71 70 70 69 68 68 85 87 87
78 77 77 76 78 82 82 83 83 83 83 83 84 85 86 86 80 71 71 70 70 70 70 69 71 85 81 71 82 87 87 84
80 77 77 77 76 83 81 79 82 84 84 84 84 86 85 85 86 83 82 73 83 78 79 82 83 85 83 83 84 80 81 80
83 82 80 78 79 82 85 84 80 77 80 82 84 84 84 85 87 86 82 85 82 83 84 83 83 83 82 80 81 80 78 82
85 84 81 80 75 84 84 84 81 79 81 83 82 79 79 85 85 86 85 83 82 82 83 82 81 81 80 80 80 79 77 78
87 84 83 82 80 80 83 83 84 82 82 85 80 84 79 76 82 80 85 84 83 83 82 81 81 80 78 79 79 77 72 79
83 83 84 81 80 81 83 85 83 84 84 83 83 83 82 75 74 74 80 85 81 80 80 79 79 78 77 78 78 77 75 77
81 82 82 83 82 83 83 85 84 85 84 84 82 83 83 75 75 73 75 79 80 78 77 75 76 75 75 77 76 77 75 76
77 77 78 80 82 83 83 82 83 85 85 83 80 80 80 73 73 74 72 72 74 75 73 74 73 72 74 74 72 74 75 75
74 75 74 76 81 82 83 83 82 84 84 83 79 79 76 72 72 73 70 69 71 71 70 71 71 70 70 71 72 72 72 74
71 71 72 74 77 80 80 74 77 81 83 81 79 77 73 71 71 70 69 69 69 70 70 68 67 69 64 63 67 70 70 71
68 69 70 71 74 78 82 81 80 80 81 79 76 75 73 71 71 69 69 70 69 69 67 64 66 68 63 61 58 60 66 70
65 67 67 68 69 73 76 81 81 79 77 76 74 74 72 70 71 70 69 71 69 69 66 66 62 64 69 63 56 56 58 64
65 64 65 66 67 68 70 75 77 80 79 79 73 72 74 71 71 71 71 71 69 70 68 70 69 63 64 69 63 66 63 60
61 61 61 63 62 61 63 68 77 81 80 76 71 70 71 72 72 72 71 70 70 69 67 70 73 70 65 63 64 63 60 63
57 56 57 58 57 57 58 60 68 76 79 75 70 69 68 69 71 71 72 69 68 68 71 71 69 72 72 70 67 60 61 60
53 51 50 53 51 52 55 56 64 69 76 76 72 69 66 67 69 69 69 69 71 70 71 71 71 70 69 70 71 71 70 66
48 44 44 46 47 49 51 53 58 70 72 71 74 72 68 68 68 70 70 70 68 69 70 71 70 69 67 67 65 64 65 64

GFSFLT2_sfc_temp_111.txt.gz
Temp
89 83 78 72 72 72 72 72 73 73 73 74 74 74 74 74 74 75 75 75 75 74 74 73 73 73 72 70 70 71 83 88
88 85 82 81 80 71 71 72 72 72 73 72 72 72 73 73 73 73 75 74 74 73 73 73 72 72 71 69 69 70 82 83
87 84 81 83 84 79 72 72 72 72 73 72 72 84 83 81 78 74 73 72 72 72 72 71 71 71 70 69 69 83 85 87
83 78 77 80 87 84 82 83 83 82 83 82 83 85 87 86 81 72 72 71 71 71 71 70 70 84 80 71 80 84 84 85
85 80 77 78 81 87 86 86 85 84 84 84 84 86 87 87 86 83 81 73 82 78 77 80 82 84 80 82 83 84 82 82
86 86 83 81 85 86 88 87 83 87 86 84 85 85 86 84 88 84 81 83 82 84 84 80 80 84 82 83 83 81 84 82
87 87 84 84 84 87 87 87 86 84 84 86 86 87 86 87 87 89 86 82 83 84 82 81 79 80 81 81 81 80 80 81
89 88 86 86 84 83 87 87 88 86 83 84 84 87 86 86 87 87 89 86 81 84 83 82 78 78 79 80 79 79 78 79
85 84 86 85 84 84 84 88 87 87 86 84 86 84 84 81 82 86 88 89 83 79 80 83 81 80 76 78 77 78 78 78
83 84 83 84 84 84 85 86 87 87 88 87 84 86 85 84 78 81 85 86 86 82 83 80 77 78 78 78 75 78 76 78
79 79 79 80 81 83 85 85 86 88 88 88 86 85 86 85 80 78 77 78 84 81 79 79 77 79 79 76 75 75 77 75
77 77 76 77 78 80 85 86 87 87 87 88 85 86 85 84 83 79 77 75 76 81 76 75 78 79 77 73 74 76 74 72
74 73 74 75 76 78 81 82 84 86 87 86 86 85 83 82 82 77 76 72 75 72 73 70 69 77 70 70 70 71 71 70
71 72 73 73 74 76 77 79 84 86 86 86 86 84 81 80 79 76 76 72 72 70 69 67 68 72 68 66 63 66 67 72
69 70 71 71 71 73 75 77 78 80 84 84 85 84 82 78 75 76 77 73 71 70 69 68 67 67 71 68 59 60 62 70
68 68 68 69 69 69 68 68 71 80 84 85 84 83 80 77 76 73 77 73 71 70 70 70 72 64 68 73 74 74 66 67
65 64 65 65 64 64 64 64 68 73 78 81 82 81 79 73 73 74 74 74 73 72 69 70 71 70 68 66 69 69 71 69
62 60 60 60 59 58 56 56 59 64 69 74 81 82 79 73 72 70 73 73 71 72 72 71 72 72 72 69 66 64 63 67
59 57 54 55 54 54 53 53 54 56 62 70 73 77 75 72 69 69 69 71 72 74 72 68 72 72 72 74 73 70 72 70
55 53 50 51 50 50 49 48 51 55 60 66 72 77 78 75 68 68 70 70 72 72 73 69 69 70 72 73 74 74 74 74

GFSFLT2_sfc_temp_114.txt.gz
Temp
79 77 75 73 72 72 72 72 73 73 73 74 74 73 73 74 74 75 74 75 74 74 73 73 73 73 72 71 70 70 71 75
80 78 77 75 74 71 71 72 72 72 73 72 72 72 73 73 73 74 74 74 74 74 72 73 72 72 71 70 69 70 70 75
83 79 78 77 77 75 71 72 72 71 72 72 70 76 75 75 74 74 73 72 72 72 72 71 71 71 71 69 69 72 75 75
80 77 78 78 81 76 75 76 75 75 76 74 76 77 78 80 76 72 72 71 71 71 71 70 69 74 71 69 70 74 76 75
77 75 74 75 79 78 78 78 77 76 77 76 76 78 78 78 77 76 73 71 73 71 70 72 74 74 74 72 73 74 75 71
80 77 75 74 78 79 79 80 78 78 78 77 76 76 76 77 79 76 75 75 74 74 74 74 74 75 75 72 73 72 74 70
76 77 76 75 75 79 77 79 79 79 79 79 78 78 76 78 77 78 77 76 75 75 75 75 75 75 75 74 73 73 73 70
78 79 76 78 76 77 78 79 79 78 78 78 78 79 77 78 77 77 77 78 76 75 76 76 73 72 73 73 73 72 72 72
76 76 78 72 76 76 76 78 80 78 78 77 77 79 77 77 76 76 76 78 75 74 74 75 73 73 71 71 71 71 71 72
76 78 73 72 72 76 78 78 77 79 78 78 77 79 78 75 75 74 76 76 76 74 72 71 71 70 69 69 69 70 70 70
74 72 71 71 71 71 73 76 77 78 78 78 77 78 79 77 76 75 74 73 73 74 73 72 70 69 70 68 68 68 69 70
73 71 71 70 70 71 71 72 77 79 79 79 77 79 79 77 76 74 74 72 71 72 71 70 70 70 72 71 68 68 68 68
70 69 69 69 69 68 69 68 73 75 79 78 78 78 78 77 76 73 72 72 72 71 70 68 67 69 66 65 65 67 67 65
67 68 67 67 68 67 67 68 69 71 71 74 79 78 77 77 76 74 73 71 71 71 69 65 67 67 63 62 59 61 63 65
65 65 65 65 65 66 67 67 68 69 71 74 76 76 77 76 75 75 72 71 70 71 69 67 66 67 68 61 56 55 59 63
64 63 63 64 62 60 59 60 60 64 66 70 72 75 77 75 74 74 72 71 69 69 70 69 69 65 66 69 65 63 57 56
60 61 61 60 58 57 56 55 57 59 60 61 65 69 74 76 74 72 72 71 70 69 69 68 69 67 66 65 65 64 63 59
58 57 57 56 55 54 52 52 53 53 55 56 59 64 69 73 74 71 69 70 69 69 69 68 69 69 67 66 65 63 62 59
56 54 52 52 51 51 51 50 50 49 51 53 55 59 62 67 71 70 69 70 70 70 69 68 68 68 67 66 65 65 65 64
53 50 48 48 48 47 47 47 47 48 49 51 53 56 61 65 69 70 68 69 69 69 68 69 68 67 66 66 66 66 66 66

GFSFLT2_sfc_temp_117.txt.gz
Temp
72 72 73 72 72 71 71 72 72 73 73 73 73 73 73 73 74 74 74 74 74 74 73 73 73 72 72 70 69 69 69 67
72 71 70 70 70 70 71 71 72 72 72 72 72 72 72 73 73 73 74 74 73 73 72 72 72 71 71 70 69 69 69 69
73 71 71 70 70 71 71 72 71 71 72 71 70 72 72 72 72 72 73 72 72 72 71 71 70 70 70 70 69 68 69 69
73 72 72 71 75 70 69 71 70 70 71 71 71 71 71 74 72 71 71 71 71 71 70 70 69 68 68 69 67 69 70 68
72 73 73 72 74 70 70 69 68 69 70 70 71 73 72 72 72 72 70 71 70 69 69 69 68 68 68 67 67 69 68 67
72 72 72 72 75 72 72 72 70 70 70 70 70 69 70 72 72 71 70 70 69 69 68 68 68 70 70 68 68 68 67 67
71 71 70 72 73 73 72 71 73 73 72 73 72 71 70 70 72 72 72 70 70 68 69 69 69 70 70 69 69 69 69 67
70 70 71 71 69 70 69 70 72 74 74 74 74 72 71 71 71 71 72 72 71 71 70 70 71 69 70 71 70 69 69 68
69 68 69 67 68 68 69 69 72 70 70 73 75 75 71 73 70 70 72 74 71 71 69 69 68 69 68 68 68 68 69 68
67 70 67 66 66 65 68 69 69 69 72 73 73 75 74 70 72 72 70 73 73 71 71 67 68 67 66 66 67 67 67 67
65 65 65 65 65 64 64 65 63 69 69 72 74 74 74 74 70 70 70 68 70 72 69 67 65 65 66 65 65 65 66 67
64 65 64 64 64 64 65 65 65 67 70 68 70 73 74 72 74 72 69 68 67 68 69 66 67 66 69 66 64 64 64 64
61 61 60 61 61 59 61 60 63 64 63 65 67 70 74 74 70 68 68 71 71 66 65 67 64 65 63 62 63 63 63 63
59 59 59 59 59 59 59 59 59 63 64 64 64 65 70 70 71 70 70 67 66 67 65 62 64 66 61 59 59 58 61 63
56 56 56 56 56 56 56 57 58 58 60 62 63 64 66 68 71 72 69 68 66 67 66 64 64 63 65 60 56 54 56 59
54 55 54 56 53 52 50 49 49 53 54 56 57 60 62 64 66 70 70 70 67 66 67 67 65 63 61 64 60 58 54 53
50 51 52 51 50 49 48 47 49 51 52 52 53 56 58 61 62 64 69 68 67 67 65 66 65 64 65 65 63 59 59 56
47 48 48 48 47 47 45 44 45 46 47 47 49 52 54 57 60 61 65 69 67 66 65 65 68 68 67 65 65 64 62 56
47 45 44 44 44 44 45 45 45 45 46 47 47 48 50 52 55 58 61 67 69 68 65 65 66 67 67 66 66 66 64 64
41 41 41 41 41 40 42 43 43 44 44 46 47 48 49 51 52 54 57 60 67 68 67 66 67 66 65 65 66 65 63 61